Location: Sauerland
(51.1981°N, 7.8053°E)
Time: 14:24:08
(UTC+01:00)

ISS - Pass Details

Date: 21 February 2026
Orbit: 416 x 427 km, 51.6° (Epoch: 5 March)

Event Time Altitude Azimuth Distance (km) Brightness Sun altitude
Exits shadow 04:12:57 11° 87° (E) 1,427 -0.3 -31.1°
Drops below altitude 10° 04:13:08 10° 85° (E) 1,496 -0.2 -31.1°
Sets 04:15:21 0° 76° (ENE) 2,361 1.2 -30.8°
